Dewpoint
6 6 2 -0 -1 -6 -9 -7 -6 -6 -6 -1 2 2 -0 -5 -11 -9 -8 -8 -4 -3 -6 -7 -8 -5 -1 1 4 6 5 1 -1 -2 -2 1 2 3 2 1 1 0
6 6 1 -2 -1 -2 -4 -7 -9 -11 -13 -7 -2 -4 -9 -11 -11 -11 -11 -10 -9 -10 -10 -9 -10 -9 -2 0 2 4 1 -8 -10 -9 -10 -9 -7 -8 -8 -9 -11 -11
3 6 3 0 1 1 -1 -6 -11 -13 -12 -10 -8 -10 -11 -10 -10 -10 -10 -10 -10 -9 -9 -9 -9 -10 -7 -5 -4 -2 -6 -11 -10 -10 -10 -10 -12 -13 -13 -15 -15 -12
-1 4 5 2 2 2 1 -5 -10 -12 -11 -11 -10 -10 -10 -10 -10 -9 -9 -9 -9 -8 -8 -8 -9 -9 -9 -10 -8 -8 -10 -11 -11 -12 -12 -13 -14 -14 -13 -12 -9 -7
2 3 5 3 3 4 2 -4 -9 -11 -10 -10 -10 -10 -10 -9 -9 -8 -9 -8 -8 -9 -9 -8 -9 -9 -9 -10 -10 -11 -11 -12 -13 -12 -12 -13 -12 -10 -9 -7 -5 -4
5 4 4 4 3 4 3 -3 -9 -8 -10 -10 -9 -10 -10 -9 -9 -9 -9 -9 -9 -8 -8 -8 -9 -10 -10 -11 -11 -11 -10 -9 -11 -10 -9 -10 -8 -7 -6 -4 -3 -3
6 6 5 5 4 4 3 -2 -6 -6 -8 -10 -9 -9 -9 -9 -9 -9 -8 -9 -8 -7 -7 -9 -9 -10 -10 -10 -10 -10 -8 -8 -8 -6 -5 -6 -6 -5 -5 -3 -2 -2
7 7 6 5 4 4 3 -1 -4 -4 -6 -9 -9 -9 -9 -9 -8 -9 -9 -8 -7 -6 -7 -9 -9 -9 -9 -9 -9 -9 -8 -8 -6 -3 -2 -5 -6 -4 -5 -5 -3 -3
8 7 7 6 5 5 4 1 -1 -2 -3 -5 -8 -9 -8 -9 -9 -8 -9 -8 -8 -8 -8 -8 -9 -8 -8 -8 -8 -8 -8 -8 -7 -4 -4 -5 -4 -2 -3 -4 -4 -3
8 7 7 6 5 6 6 4 2 0 -1 -1 -4 -7 -8 -9 -9 -8 -8 -7 -8 -8 -7 -8 -8 -8 -8 -7 -7 -7 -7 -7 -7 -6 -6 -4 -1 0 -1 -2 -2 -1
8 7 7 6 5 7 7 5 3 2 0 -0 0 -2 -6 -7 -8 -8 -8 -7 -7 -7 -7 -7 -7 -7 -7 -6 -6 -6 -5 -5 -5 -4 -4 -3 -1 -1 -1 -1 0 2
9 8 8 7 7 8 8 5 3 4 1 -1 1 1 -1 -2 -3 -4 -7 -7 -5 -5 -6 -7 -6 -6 -6 -5 -5 -4 -4 -3 -2 -1 -1 -1 -0 -1 -1 -1 1 2
10 9 9 9 9 9 8 5 4 5 3 0 1 2 2 1 1 1 -1 -2 -1 -4 -5 -5 -4 -4 -4 -3 -2 -1 -1 0 1 1 2 3 3 3 3 3 3 3
10 10 9 9 9 9 8 5 5 5 5 4 3 2 3 2 2 3 3 3 3 0 -1 -1 -0 0 -0 -0 2 3 2 3 3 4 4 5 5 5 5 5 5 5
10 10 9 9 9 9 8 7 6 6 6 6 5 4 4 4 4 4 3 4 4 3 3 3 3 4 3 2 3 4 4 5 5 5 5 6 6 6 6 5 5 6
9 9 9 9 9 9 8 7 7 7 7 7 6 6 5 5 5 6 5 4 4 4 4 4 4 4 4 4 4 4 5 5 5 5 5 5 6 6 5 5 5 5
9 9 9 9 9 9 9 8 7 7 7 6 6 6 5 4 5 5 5 5 5 5 4 4 4 5 5 4 4 5 4 5 5 5 5 5 5 5 5 5 5 6
9 9 9 9 9 9 9 8 8 7 7 7 6 6 6 6 6 6 6 6 6 5 5 4 4 4 4 5 4 4 4 4 4 4 4 5 5 5 5 5 5 7
7 8 8 9 9 9 8 8 8 8 8 7 7 7 7 8 7 7 7 7 7 6 6 6 5 4 4 5 5 4 4 3 3 4 4 4 5 5 4 5 7 8
4 6 7 7 8 8 8 8 8 8 8 8 8 8 8 8 8 8 8 7 7 7 7 7 6 5 4 4 5 5 4 3 3 3 3 4 5 5 4 4 5 5
1 2 3 3 3 4 5 6 7 8 8 8 8 8 8 8 7 7 7 7 7 7 7 7 7 6 5 4 5 5 4 3 3 3 3 4 4 2 -1 -1 -2 -3
-1 -1 -1 -0 1 2 3 4 5 6 7 7 8 8 8 7 7 7 7 7 7 7 8 8 7 6 5 4 5 5 4 4 4 3 3 3 1 -2 -4 -4 -5 -5
-1 -2 -2 -2 -2 0 3 4 4 4 6 6 6 6 7 6 7 7 7 7 6 7 7 8 7 5 5 5 5 5 4 4 4 3 2 1 -2 -4 -4 -4 -5 -5
-1 -1 -2 -3 -4 -2 1 3 3 3 4 3 3 4 5 5 6 7 8 7 6 6 7 7 6 5 5 6 6 6 5 4 4 3 1 -1 -4 -4 -4 -5 -5 -5
-1 -1 -1 -2 -2 -1 0 2 3 4 3 2 1 2 4 4 5 6 7 7 6 6 6 6 5 4 5 6 6 5 5 4 4 3 0 -2 -3 -3 -3 -3 -4 -4
-1 -1 -1 -2 -1 -1 -0 1 2 4 3 0 -0 2 3 3 4 6 6 6 6 6 6 6 5 4 5 6 6 5 4 3 4 3 0 -1 -1 -2 -2 -2 -2 -2
Wind_Speed
10 9 8 7 7 6 5 4 4 6 7 8 8 8 9 9 9 9 9 10 11 10 9 8 8 8 8 9 9 7 5 6 7 8 9 9 10 10 10 11 10 9
12 11 10 7 5 4 2 1 3 6 7 8 10 10 12 12 10 10 11 11 11 11 11 10 10 11 10 10 10 8 7 9 10 11 11 11 11 11 11 11 11 11
14 13 12 8 4 2 2 3 5 7 8 9 11 11 13 13 11 11 11 11 11 11 11 10 10 11 11 12 12 11 10 11 12 12 12 13 13 13 14 14 14 14
16 15 14 11 6 3 3 5 6 8 9 11 11 11 11 11 11 10 10 9 9 9 9 9 9 10 10 12 12 11 11 12 12 13 13 14 15 16 17 17 17 17
15 17 17 13 8 5 6 7 8 8 10 12 12 11 10 10 10 10 9 9 8 8 8 8 8 9 10 11 11 10 10 11 12 13 13 15 16 17 18 19 19 19
14 18 19 15 9 7 8 9 9 9 10 13 12 11 10 10 9 9 9 8 8 8 8 8 8 9 10 10 11 11 11 12 13 14 14 14 15 16 17 16 15 16
14 18 20 16 10 7 10 12 11 9 10 13 14 12 10 10 9 9 9 8 8 8 8 8 9 10 10 11 12 13 13 14 15 14 13 13 14 13 13 13 11 11
13 17 19 16 11 8 11 14 13 11 10 11 14 13 11 11 10 9 10 9 9 9 9 9 10 11 11 12 12 13 13 14 14 12 10 11 12 10 10 10 9 8
11 15 17 15 12 10 11 15 15 14 11 10 12 14 13 11 10 10 10 10 10 10 10 10 10 11 11 11 11 11 11 12 12 11 10 10 9 8 7 8 8 7
9 13 16 15 13 11 11 15 18 17 14 11 11 12 13 12 11 11 11 10 10 10 10 11 11 11 11 10 10 10 10 9 9 10 10 9 8 7 7 7 6 5
8 11 14 14 14 12 11 15 20 19 16 13 11 11 13 13 12 12 12 11 11 11 11 11 10 10 10 9 9 9 9 9 9 9 9 9 9 9 9 9 7 6
8 9 11 12 13 12 11 15 20 20 17 13 11 12 13 13 13 13 13 12 12 12 12 11 11 10 10 9 9 9 9 9 9 9 9 9 9 9 9 9 9 8
6 7 9 10 10 11 13 16 19 19 18 15 12 12 13 14 14 13 13 13 13 13 13 12 12 11 10 10 9 9 9 9 9 9 9 9 8 8 7 7 7 8
4 6 8 8 9 11 14 17 18 18 17 17 16 14 13 14 14 14 14 15 15 15 14 14 13 12 12 11 10 10 10 10 9 8 8 8 8 7 8 7 7 8
5 7 7 6 7 9 12 15 17 17 16 17 18 17 15 14 14 15 16 17 17 17 16 16 15 14 15 14 14 14 13 12 11 10 9 9 8 8 10 11 11 11
4 5 4 5 6 7 8 11 14 16 16 16 17 18 17 16 15 16 18 19 19 20 20 19 18 18 18 18 18 18 17 15 12 11 11 12 12 13 14 14 13 14
2 2 3 5 6 7 7 9 10 12 14 15 16 16 17 17 17 18 20 20 20 22 23 24 23 22 20 20 21 21 21 18 14 11 11 12 14 15 15 15 15 14
2 3 4 5 7 8 8 9 10 11 13 14 16 16 17 17 19 20 21 21 21 23 24 25 27 26 24 22 23 24 24 22 18 15 13 13 14 15 16 16 14 11
2 3 5 6 7 8 9 9 10 12 14 15 15 16 16 17 18 19 20 21 21 22 23 24 26 29 30 28 25 24 25 24 21 19 17 16 16 17 18 16 11 8
1 2 3 5 7 9 10 10 11 12 13 14 15 15 16 16 17 18 19 21 22 22 22 23 25 27 30 30 28 26 26 24 22 21 20 18 16 17 16 14 12 11
2 2 3 4 5 7 9 10 12 13 14 14 13 13 14 16 17 17 18 19 20 20 19 21 22 23 25 28 28 27 28 27 25 22 19 16 16 16 14 13 12 12
5 6 5 5 5 6 7 8 10 12 13 14 14 14 15 18 19 19 19 18 17 17 17 18 20 20 21 23 24 25 26 25 22 19 16 15 15 14 13 12 11 10
7 8 9 8 8 7 7 7 8 9 10 12 13 13 14 16 17 19 20 19 18 17 16 17 18 17 18 19 20 22 22 20 16 15 16 15 14 13 13 12 11 10
8 9 10 11 11 9 9 9 9 9 10 10 11 11 10 11 13 15 18 19 19 18 17 17 17 17 18 19 19 19 17 15 13 13 14 15 14 13 12 11 10 9
8 9 10 11 11 11 11 11 11 11 11 11 11 10 10 10 10 11 14 16 17 18 17 16 16 16 17 18 18 17 15 13 12 12 14 13 13 12 11 11 10 9
11 11 12 12 12 13 14 14 13 12 12 13 11 10 10 10 10 10 12 14 15 15 15 15 16 17 19 19 18 16 14 12 11 11 12 12 12 12 11 11 11 10
Wind_Direction
188 189 187 162 138 132 137 138 144 145 139 141 144 146 153 150 136 130 135 141 144 147 149 144 141 136 132 143 139 124 129 136 133 133 132 136 139 140 145 148 147 145
201 200 197 176 146 144 167 185 164 154 145 142 143 147 154 148 134 130 131 134 136 136 136 131 130 128 124 134 139 132 136 140 136 132 131 134 135 138 142 142 143 140
219 215 207 198 185 188 211 201 168 152 143 139 137 144 154 150 141 138 135 136 136 135 134 131 131 129 128 134 137 138 144 145 142 139 137 138 138 140 140 137 137 136
233 225 215 212 216 238 239 212 178 152 138 135 133 141 153 154 151 148 145 143 141 140 138 136 137 135 135 136 136 139 145 145 144 142 140 140 140 140 138 136 136 134
232 225 219 216 223 253 249 213 182 158 140 132 131 137 149 155 155 153 153 152 149 149 145 141 142 140 138 136 132 133 136 139 139 136 136 138 138 137 136 136 136 133
223 223 221 219 229 253 240 208 185 169 151 135 131 136 144 150 152 154 155 154 153 154 148 142 140 138 136 133 130 128 128 132 131 127 127 129 130 132 132 132 132 130
222 222 221 221 233 242 221 202 188 177 163 146 140 142 144 146 148 149 150 149 148 148 146 143 140 138 137 134 133 132 131 131 127 121 122 123 123 126 127 128 128 127
222 222 221 223 229 227 214 208 199 188 179 163 153 151 151 151 152 150 149 149 147 148 147 146 145 145 144 141 141 140 137 134 129 126 128 127 123 123 125 129 131 132
213 219 222 224 225 222 220 218 211 198 193 185 169 162 160 160 161 159 156 155 153 153 154 155 156 156 153 150 149 148 146 144 140 139 140 134 127 126 129 132 133 136
209 218 222 223 224 227 228 227 221 209 200 198 188 178 172 170 173 171 166 165 164 164 166 168 168 166 163 161 160 158 156 156 154 154 154 150 145 148 153 150 144 147
208 219 223 227 233 239 236 230 226 218 206 201 203 199 186 178 180 180 176 176 176 178 181 181 180 179 177 174 173 170 168 168 169 170 171 169 170 172 173 170 165 169
201 215 226 232 236 234 228 226 225 222 214 207 210 212 203 191 186 185 185 185 184 187 191 192 192 191 189 188 187 185 183 183 184 184 185 186 189 189 188 189 188 189
204 216 222 227 228 221 216 220 223 222 219 216 217 218 216 208 199 193 191 190 193 199 201 201 201 200 199 197 194 193 196 197 198 199 199 197 199 205 208 211 216 216
214 223 220 217 219 216 213 217 222 223 223 224 226 224 222 220 218 215 208 203 205 209 211 210 208 207 208 207 203 204 205 207 210 212 214 216 217 226 233 235 243 247
218 230 226 215 211 212 215 219 226 229 229 229 230 229 230 234 234 232 229 225 223 222 222 220 218 217 219 218 217 216 214 215 220 223 227 233 237 244 251 250 250 252
219 230 229 218 211 209 213 218 225 229 229 228 227 229 234 237 234 231 232 233 233 233 232 230 230 230 231 230 229 227 223 220 223 231 237 244 250 251 252 252 249 249
221 224 227 220 211 211 214 218 222 223 223 223 223 226 231 233 232 231 233 234 234 237 238 236 235 236 239 242 239 233 229 224 225 238 249 253 254 253 250 248 247 248
224 219 222 223 219 219 220 222 225 226 226 227 228 229 233 235 234 233 235 237 238 241 243 242 239 239 241 243 242 238 234 230 234 246 258 260 257 254 251 249 248 242
253 233 229 230 232 234 232 230 230 230 231 233 234 234 235 236 236 235 235 238 240 242 243 242 242 242 241 240 241 242 238 236 243 251 258 262 260 254 250 247 245 238
303 282 259 247 243 243 241 238 236 235 236 238 239 240 238 237 238 237 237 238 240 241 242 241 242 243 242 239 239 243 244 244 248 249 252 258 254 248 247 241 236 237
288 280 280 280 272 261 253 248 244 243 245 246 244 241 239 240 239 239 239 239 239 240 238 239 242 242 239 238 238 243 245 243 244 245 246 248 245 242 244 239 234 233
269 258 264 278 281 275 269 261 253 247 247 247 244 241 243 245 244 242 240 236 234 234 231 234 239 237 233 234 236 237 236 235 240 243 233 229 234 237 237 233 229 226
279 271 271 273 273 272 268 262 256 251 246 243 243 244 246 248 246 241 237 234 231 229 226 227 229 224 220 222 223 222 224 226 232 228 214 215 226 228 226 226 222 219
288 280 275 273 272 269 262 258 255 252 248 245 243 244 245 248 246 237 232 231 229 226 222 222 222 218 215 214 210 206 206 205 204 203 204 211 217 217 217 219 215 214
281 277 270 267 265 261 254 252 252 249 247 245 241 240 243 247 245 234 226 224 223 221 219 216 212 208 202 194 190 190 191 186 183 192 200 203 203 204 206 206 205 206
278 274 265 257 255 254 248 244 246 245 246 245 238 232 235 237 233 226 221 221 218 213 207 200 193 189 186 182 184 192 195 186 177 182 188 188 189 195 197 196 197 198
Height
1537 1538 1540 1540 1540 1541 1542 1542 1543 1543 1544 1544 1545 1545 1546 1546 1546 1547 1547 1547 1548 1548 1549 1549 1549 1549 1550 1551 1552 1553 1553 1553 1554 1554 1555 1555 1556 1556 1557 1557 1558 1559
1537 1538 1539 1540 1540 1541 1541 1542 1542 1543 1543 1544 1544 1545 1545 1546 1547 1547 1547 1548 1548 1549 1549 1550 1550 1550 1551 1551 1552 1553 1554 1554 1555 1555 1556 1556 1557 1557 1558 1558 1559 1559
1535 1537 1538 1539 1540 1540 1541 1542 1543 1543 1543 1543 1544 1545 1545 1546 1547 1547 1548 1548 1549 1549 1550 1550 1551 1551 1552 1552 1553 1554 1554 1555 1555 1556 1556 1557 1557 1558 1559 1559 1560 1560
1534 1536 1537 1539 1539 1539 1541 1543 1543 1543 1543 1543 1544 1545 1546 1547 1547 1548 1548 1549 1550 1550 1550 1551 1552 1552 1553 1553 1554 1554 1555 1555 1556 1556 1557 1557 1558 1559 1559 1560 1561 1562
1533 1535 1536 1538 1539 1539 1540 1542 1542 1543 1543 1543 1544 1545 1546 1547 1548 1548 1549 1549 1550 1551 1551 1552 1552 1553 1553 1554 1554 1555 1556 1556 1557 1557 1558 1558 1559 1560 1560 1561 1562 1562
1532 1534 1535 1537 1538 1539 1540 1541 1542 1542 1543 1543 1544 1545 1546 1547 1548 1548 1549 1549 1550 1551 1552 1552 1553 1553 1554 1555 1555 1556 1557 1558 1558 1558 1559 1560 1560 1561 1562 1563 1563 1564
1531 1532 1534 1536 1537 1538 1539 1540 1541 1542 1543 1543 1543 1545 1546 1547 1548 1549 1549 1550 1550 1551 1552 1553 1553 1554 1555 1555 1556 1557 1557 1558 1559 1559 1560 1560 1561 1562 1563 1564 1564 1565
1529 1531 1533 1535 1536 1537 1538 1539 1541 1541 1542 1543 1543 1544 1545 1547 1548 1549 1549 1550 1550 1551 1552 1553 1554 1554 1555 1556 1556 1557 1557 1558 1558 1559 1560 1560 1561 1562 1563 1564 1564 1565
1528 1530 1532 1534 1535 1536 1537 1538 1540 1540 1541 1542 1542 1543 1545 1546 1547 1548 1549 1550 1550 1551 1552 1553 1554 1554 1555 1556 1556 1557 1557 1558 1558 1559 1560 1560 1561 1562 1563 1563 1564 1565
1527 1528 1531 1533 1534 1535 1536 1537 1538 1539 1540 1541 1542 1543 1544 1545 1546 1547 1548 1549 1550 1551 1552 1552 1553 1554 1555 1555 1556 1557 1557 1558 1558 1559 1559 1560 1561 1562 1563 1563 1564 1564
1526 1527 1529 1531 1532 1533 1534 1535 1537 1538 1539 1540 1541 1542 1543 1544 1545 1546 1547 1548 1549 1550 1551 1552 1553 1553 1554 1555 1556 1556 1557 1558 1558 1559 1559 1560 1560 1561 1562 1562 1563 1564
1525 1526 1528 1529 1530 1532 1533 1534 1535 1537 1538 1539 1540 1541 1542 1543 1544 1545 1546 1547 1548 1549 1550 1551 1552 1553 1554 1555 1555 1556 1557 1557 1558 1558 1559 1560 1560 1560 1561 1561 1562 1563
1525 1526 1527 1528 1529 1530 1531 1532 1534 1535 1537 1538 1539 1540 1541 1542 1543 1544 1545 1546 1547 1548 1549 1550 1551 1552 1553 1553 1554 1555 1556 1556 1557 1558 1558 1559 1559 1560 1560 1561 1561 1562
1525 1526 1526 1527 1528 1529 1530 1531 1532 1534 1535 1536 1538 1539 1540 1541 1542 1543 1543 1545 1545 1546 1547 1548 1549 1550 1551 1552 1553 1554 1554 1555 1556 1557 1557 1558 1558 1558 1559 1559 1560 1560
1525 1525 1525 1526 1527 1528 1530 1530 1531 1532 1534 1535 1536 1537 1539 1539 1540 1541 1542 1543 1544 1545 1546 1546 1547 1548 1548 1549 1551 1552 1553 1553 1554 1555 1556 1556 1557 1557 1557 1558 1558 1559
1524 1524 1525 1525 1526 1528 1529 1529 1530 1531 1532 1533 1534 1535 1537 1538 1539 1539 1540 1541 1542 1542 1543 1544 1545 1546 1546 1547 1548 1549 1550 1551 1552 1553 1554 1554 1555 1555 1555 1555 1556 1556
1524 1524 1525 1525 1526 1527 1527 1528 1529 1529 1530 1531 1532 1533 1534 1535 1536 1537 1537 1538 1539 1540 1540 1542 1543 1544 1544 1545 1546 1546 1547 1548 1549 1550 1551 1552 1553 1553 1553 1553 1553 1554
1524 1524 1524 1525 1525 1526 1526 1526 1527 1527 1528 1529 1530 1531 1532 1532 1533 1534 1534 1535 1536 1537 1538 1538 1540 1541 1542 1543 1543 1544 1545 1546 1547 1548 1549 1550 1550 1550 1550 1550 1551 1551
1523 1523 1524 1524 1524 1524 1524 1525 1525 1525 1526 1527 1527 1528 1529 1529 1530 1531 1531 1532 1533 1534 1534 1535 1536 1537 1539 1540 1541 1541 1542 1543 1544 1545 1546 1547 1548 1548 1547 1548 1548 1549
1523 1523 1523 1523 1523 1523 1523 1523 1524 1524 1524 1524 1525 1526 1526 1527 1527 1528 1528 1529 1529 1530 1531 1531 1532 1533 1535 1536 1537 1538 1539 1540 1541 1541 1542 1544 1545 1545 1545 1545 1546 1546
1522 1522 1522 1522 1522 1522 1522 1522 1522 1522 1522 1522 1523 1523 1524 1524 1524 1525 1525 1526 1526 1527 1528 1528 1528 1529 1531 1532 1534 1535 1536 1537 1537 1538 1540 1543 1544 1543 1543 1543 1544 1544
1521 1521 1521 1521 1521 1521 1521 1521 1521 1521 1521 1521 1520 1521 1521 1521 1522 1522 1522 1523 1523 1524 1525 1525 1525 1526 1528 1529 1530 1532 1533 1534 1535 1536 1538 1540 1542 1541 1541 1541 1542 1543
1520 1520 1520 1520 1520 1520 1520 1520 1520 1520 1520 1519 1519 1519 1519 1519 1519 1519 1520 1520 1521 1521 1522 1523 1523 1524 1525 1526 1527 1529 1530 1531 1533 1534 1535 1537 1539 1539 1540 1540 1540 1541
1519 1519 1519 1519 1519 1519 1519 1519 1518 1518 1518 1518 1517 1517 1517 1517 1517 1517 1517 1518 1518 1519 1520 1520 1521 1522 1523 1524 1526 1527 1529 1530 1531 1532 1533 1535 1537 1537 1538 1538 1539 1540
1517 1517 1517 1517 1517 1517 1517 1517 1517 1517 1517 1516 1516 1515 1515 1515 1516 1516 1516 1516 1516 1517 1518 1518 1519 1520 1521 1523 1525 1526 1528 1529 1531 1531 1532 1533 1535 1535 1536 1537 1538 1539
1516 1516 1516 1515 1515 1515 1515 1515 1515 1515 1515 1514 1514 1514 1513 1513 1514 1515 1515 1514 1514 1515 1516 1517 1518 1518 1520 1522 1524 1525 1526 1528 1530 1530 1531 1532 1533 1534 1535 1536 1536 1537